Temperature
19 19 18 18 18 18 18 18 18 18 18 18 18 18 18 18 18 18 18 18 18 18 18 17 17 17 17 17 17 17 17 17 17 17 17 17 17 17 17 16 16 16 16
18 18 19 19 19 18 18 18 18 18 18 18 18 18 18 18 18 18 18 18 18 18 18 17 17 17 17 17 17 17 17 17 17 17 17 17 17 17 16 16 16 16 16
18 18 18 18 19 18 18 18 18 18 18 18 18 18 18 18 18 18 18 18 18 18 18 18 17 17 17 17 17 17 17 17 17 17 17 17 17 16 16 16 16 16 16
18 18 18 18 18 18 18 18 18 18 18 18 18 18 18 18 18 18 18 18 18 18 18 18 18 17 17 17 17 17 17 17 17 17 17 17 16 16 16 16 16 16 16
19 18 18 18 18 18 18 18 18 18 18 18 18 18 18 18 18 18 18 18 18 18 18 18 18 17 17 17 17 17 17 17 17 17 17 17 17 16 16 16 16 16 16
19 19 19 19 19 18 18 18 18 18 18 18 18 19 19 19 18 18 18 18 18 18 18 17 17 17 17 17 17 17 17 17 17 17 17 17 17 17 16 16 16 16 16
19 19 19 19 19 18 18 18 18 18 18 18 18 18 19 19 19 18 18 18 18 18 18 17 17 17 17 17 17 17 17 17 17 17 17 17 17 17 16 16 16 16 16
19 19 19 19 18 18 18 18 18 18 18 18 18 18 18 18 18 19 18 18 18 18 18 18 18 17 17 17 17 17 17 17 17 17 17 17 17 16 16 16 16 16 16
19 19 19 19 18 18 18 18 18 18 18 18 18 19 18 18 18 19 18 18 18 18 18 18 18 17 17 17 17 17 17 17 17 17 17 17 16 16 16 16 16 16 16
19 19 19 18 18 18 18 18 18 18 18 18 18 19 19 19 18 18 18 18 18 18 18 18 18 17 17 17 17 17 17 17 17 17 17 17 16 16 16 16 16 16 16
19 19 19 19 18 18 18 18 18 18 18 18 18 18 18 19 19 18 18 18 18 18 18 18 18 17 17 17 17 17 17 17 17 17 17 17 16 16 16 16 16 16 16
19 19 19 19 18 18 18 18 18 18 18 18 18 18 18 18 18 18 18 18 18 18 18 18 18 18 17 17 17 17 17 17 17 17 17 16 16 16 16 16 16 16 16
19 19 18 18 18 18 18 18 18 18 18 18 18 18 18 18 18 18 18 18 18 18 18 18 18 18 17 17 17 17 17 17 17 17 17 16 16 16 16 16 16 16 15
18 18 18 18 18 18 18 18 18 18 18 18 18 18 18 18 18 18 18 18 18 18 18 18 18 17 17 17 17 17 17 17 17 17 17 16 16 16 16 16 15 15 15
18 18 18 18 18 18 18 18 18 17 18 17 17 17 17 17 18 18 18 18 18 17 17 18 17 17 17 17 17 17 17 17 17 17 17 16 16 16 16 16 16 16 15
18 18 18 18 18 18 18 17 17 17 17 17 17 17 17 17 17 17 17 18 18 17 17 18 17 17 17 17 17 17 17 17 16 16 16 16 16 16 16 16 16 16 16
18 18 17 17 17 18 17 17 17 17 17 17 17 17 17 17 17 17 17 17 17 17 17 17 17 17 17 17 17 17 17 17 16 16 16 16 16 16 16 16 16 16 15
17 17 17 17 17 17 17 17 17 17 17 17 17 17 17 17 17 17 17 17 17 17 17 17 17 17 17 17 17 17 17 16 17 17 16 16 16 16 16 16 16 16 15
17 17 17 17 17 17 17 17 17 17 17 16 16 16 16 16 16 16 16 16 16 17 17 17 17 17 17 17 17 17 16 16 16 16 16 16 16 16 16 16 16 16 15
17 16 16 16 17 17 17 16 16 16 16 16 16 16 16 16 16 16 16 16 16 16 16 16 16 17 17 16 16 16 16 16 16 16 16 16 16 16 16 16 16 16 15
16 16 16 16 16 16 16 16 16 16 16 16 16 16 16 16 16 16 16 16 16 16 16 16 16 16 16 16 16 16 16 16 16 16 16 16 16 16 16 16 15 15 15
16 16 16 16 16 16 16 16 16 16 16 16 16 16 16 16 16 16 16 16 16 16 16 16 16 16 16 16 16 16 15 15 15 15 15 15 15 15 16 16 16 15 15
16 16 16 16 16 16 16 16 15 15 15 15 15 15 15 16 16 16 16 16 15 15 15 15 16 16 16 16 16 15 15 15 15 16 15 15 15 15 15 15 15 15 15
16 16 16 16 16 16 15 15 15 15 15 15 15 15 15 16 16 15 15 15 15 15 15 15 15 15 15 16 16 15 15 15 15 15 15 15 15 15 15 15 15 15 15
16 16 16 16 15 16 15 15 15 15 15 15 15 15 15 15 16 15 15 15 15 15 15 15 15 15 15 15 15 15 15 15 15 15 15 15 15 15 15 15 15 15 15
16 15 15 15 15 16 16 15 15 15 15 15 15 15 15 15 15 15 15 15 15 15 15 15 15 15 15 15 15 15 15 15 14 14 15 15 15 14 14 14 14 14 14
Wind_Speed
1 1 1 0 0 1 1 1 1 1 1 1 2 2 1 1 3 6 7 11 12 11 10 9 8 8 7 8 9 9 11 12 12 12 11 11 11 11 10 10 9 9 8
1 0 0 1 1 0 1 0 1 1 1 0 1 1 2 2 3 6 8 9 11 11 10 9 9 8 8 8 8 8 10 12 12 11 12 11 11 11 10 10 10 9 8
1 1 1 1 1 1 2 1 0 1 2 1 1 1 2 2 3 5 7 8 9 11 11 11 10 9 9 9 9 8 9 11 12 12 12 12 12 11 10 10 10 9 9
0 0 0 0 0 1 0 1 1 1 1 1 1 2 2 2 3 4 5 6 8 9 10 11 11 10 10 10 10 10 10 10 12 11 11 12 12 11 11 10 10 10 9
0 0 1 1 1 0 1 1 1 0 0 1 1 2 2 3 3 4 4 5 6 8 9 10 11 11 10 10 11 11 11 11 11 11 10 11 12 12 12 11 11 10 9
0 1 0 1 1 1 1 1 0 0 1 1 2 1 2 3 3 3 4 3 4 7 9 10 9 10 11 10 10 11 12 11 11 11 11 11 12 12 12 11 11 11 10
0 0 1 0 1 1 0 1 1 1 1 1 1 1 1 2 3 3 3 3 4 4 6 9 10 9 9 11 11 10 11 11 11 11 11 11 11 13 12 12 12 11 11
0 1 1 1 1 1 1 1 1 1 2 1 1 1 1 1 2 4 3 4 4 4 5 7 8 9 9 9 10 11 11 10 10 11 11 11 10 11 12 12 12 11 11
0 1 0 1 2 2 1 2 1 1 2 2 1 1 1 1 1 1 2 2 3 3 3 4 7 8 9 10 10 11 12 11 10 10 10 10 10 10 9 11 12 12 11
0 1 1 1 2 2 1 2 0 1 1 2 1 1 1 1 1 1 1 2 3 3 3 4 5 7 9 9 9 12 13 12 11 11 11 10 10 10 10 10 11 12 12
1 1 1 1 1 1 1 1 1 1 1 2 2 1 1 1 1 2 2 2 2 3 3 2 2 5 8 10 10 11 14 13 12 11 11 11 11 10 10 10 9 10 12
1 1 1 1 1 1 1 1 2 2 2 3 2 2 2 1 1 1 1 2 3 2 2 2 2 4 6 9 10 13 15 14 13 12 11 11 11 11 11 11 10 10 10
1 1 1 1 2 2 2 1 2 2 3 3 3 3 2 2 1 1 0 1 1 1 1 2 3 3 5 7 9 13 14 14 14 13 12 11 11 10 10 11 11 10 10
2 2 2 2 2 3 2 1 2 2 2 3 4 3 3 2 2 2 1 1 1 1 2 2 2 2 4 7 10 13 11 15 14 13 12 12 11 11 10 10 11 11 11
3 3 2 3 2 2 2 2 2 2 1 3 3 3 3 3 2 2 1 1 1 2 2 2 2 2 3 5 10 9 9 14 16 15 14 13 12 12 12 11 11 11 10
3 3 2 3 3 3 2 2 2 2 2 2 2 1 2 3 2 2 2 2 2 2 2 1 2 3 3 5 9 8 8 13 16 16 15 14 13 13 12 12 12 12 11
2 2 2 2 3 3 3 2 3 2 2 2 2 2 3 2 2 2 2 1 1 1 2 2 2 1 3 3 4 6 7 10 11 16 16 16 15 15 14 13 13 13 12
2 2 2 2 3 3 3 3 3 3 2 2 3 3 2 2 2 3 2 2 1 1 2 3 2 1 2 3 5 5 6 8 9 14 17 17 17 16 16 15 15 15 14
2 3 2 2 3 3 2 3 3 3 3 3 3 3 3 3 2 3 3 2 2 2 2 2 2 2 2 2 3 4 4 3 6 10 15 17 17 17 17 17 17 16 16
3 3 3 3 3 3 2 3 3 4 3 3 3 3 3 3 3 4 3 3 2 2 2 2 2 2 2 2 2 3 3 3 4 4 7 10 14 17 17 17 17 17 16
4 3 3 4 4 3 2 2 3 4 4 4 4 3 3 4 4 4 4 2 3 3 3 3 3 3 2 2 2 3 4 3 4 3 3 4 6 8 11 14 16 17 17
3 3 4 4 4 4 3 3 4 5 4 5 4 4 4 4 4 6 6 5 4 4 4 4 4 4 4 3 3 3 3 3 3 3 3 4 5 6 7 10 15 18 19
4 4 4 4 4 3 3 3 4 5 6 5 5 5 6 5 3 4 5 7 7 7 7 5 5 5 5 4 4 5 4 4 5 4 3 5 4 5 5 8 15 18 19
4 4 4 4 4 4 3 4 5 6 6 6 6 6 5 5 5 4 5 5 5 6 8 7 7 8 7 4 5 6 6 6 5 4 4 4 4 4 4 4 12 16 18
4 5 4 4 4 3 3 4 4 5 5 6 6 5 6 4 5 4 5 5 6 6 8 9 10 10 10 9 6 4 5 4 5 4 4 4 4 3 4 4 6 12 15
5 5 4 4 4 4 4 4 4 4 5 5 5 5 5 4 4 4 5 6 7 7 6 7 7 9 9 9 10 8 7 5 5 4 4 4 4 3 3 3 3 6 9
Wind_Direction
66 51 16 352 241 189 171 186 143 122 204 209 195 174 162 132 127 134 147 160 162 167 173 176 180 185 189 191 192 198 198 193 190 192 191 190 190 190 190 188 186 184 185
93 61 17 317 312 192 114 128 207 169 204 212 180 187 165 161 135 142 154 170 172 174 179 185 189 192 192 190 193 198 195 191 190 192 192 194 194 194 194 193 189 187 187
117 184 204 216 225 201 173 180 259 204 207 204 183 191 172 163 149 150 157 166 176 181 185 189 192 196 197 198 198 192 187 191 192 192 194 195 198 196 194 191 189 188 189
303 309 240 216 113 191 167 175 212 233 202 169 189 213 190 168 162 160 163 168 173 178 187 193 195 198 201 202 200 196 192 193 194 191 192 195 197 197 192 192 193 194 196
76 295 29 354 264 298 320 280 105 294 233 195 209 207 184 175 177 175 168 174 177 170 173 188 194 199 203 205 204 202 198 194 191 191 193 195 197 197 195 194 195 196 198
46 31 94 319 334 336 347 348 47 262 251 253 246 199 183 185 176 174 185 175 180 172 170 174 185 196 203 205 205 206 201 198 194 195 196 196 196 194 193 196 198 197 199
50 330 326 295 294 285 306 322 340 282 258 217 234 230 192 195 170 172 184 174 185 176 166 169 181 184 189 199 197 196 198 196 197 197 197 196 196 195 194 197 199 201 202
333 279 314 309 307 318 300 282 272 260 272 249 238 243 175 229 228 187 171 183 190 182 177 181 179 179 177 175 187 191 192 191 193 196 195 194 194 194 195 197 201 204 203
93 316 329 323 317 296 259 245 228 238 257 272 247 189 169 210 244 183 193 192 185 185 188 174 178 172 182 172 173 186 189 188 193 196 195 193 193 192 196 202 204 206 207
229 260 264 260 294 305 299 286 212 260 250 275 262 247 226 169 193 196 212 204 206 194 200 203 176 170 176 169 169 174 184 188 191 194 194 193 194 197 200 204 209 210 211
244 270 270 272 285 293 294 294 311 284 269 271 286 281 278 241 225 199 207 204 214 206 197 210 176 165 170 166 171 172 177 183 189 193 194 195 197 200 203 206 212 215 216
272 272 262 276 280 272 276 263 259 250 255 263 274 278 276 287 284 256 226 208 200 207 194 203 198 175 177 169 174 172 175 180 187 191 193 196 199 203 207 209 214 220 220
332 349 342 321 303 286 265 260 249 250 249 254 256 263 279 273 263 274 249 237 196 196 210 222 213 186 175 158 167 169 178 182 186 190 194 197 200 204 210 214 217 221 224
341 3 352 328 319 312 303 301 278 263 258 257 258 255 268 272 277 270 245 242 259 238 209 215 193 192 164 159 169 174 183 186 188 192 196 199 202 205 212 217 219 220 223
345 358 353 345 330 316 320 307 289 280 278 262 260 250 255 260 260 277 276 240 245 261 243 205 198 192 181 151 167 186 183 189 191 195 199 202 204 209 213 217 216 216 213
347 338 344 345 339 321 302 288 287 288 277 282 264 265 274 279 270 266 253 243 243 253 272 231 221 197 201 190 186 197 193 193 197 199 202 206 209 212 214 216 215 210 210
338 328 339 337 327 319 321 312 301 312 294 294 293 262 256 279 291 290 287 262 252 243 256 275 250 224 202 199 185 212 200 191 198 202 206 208 211 215 215 214 211 209 210
324 318 327 322 312 320 323 321 311 312 298 282 277 270 260 256 266 284 288 280 277 255 238 264 265 251 232 211 186 212 213 204 200 205 207 210 213 215 215 211 209 208 209
307 302 294 286 293 297 300 302 302 302 293 280 269 261 254 244 246 260 264 270 263 260 229 241 263 253 237 223 206 223 229 225 219 207 206 212 215 216 215 212 210 209 210
291 293 291 281 275 276 285 291 294 292 293 287 274 262 254 241 245 252 248 249 255 260 247 239 251 256 237 236 214 219 237 231 238 222 210 213 216 217 215 213 211 211 214
302 299 295 289 283 272 287 310 300 291 290 289 284 269 253 236 236 244 251 252 257 258 254 247 247 251 239 220 222 229 237 240 230 218 214 215 206 208 212 218 218 216 216
300 292 292 297 294 295 318 322 308 296 286 282 281 278 263 235 228 231 243 256 252 248 251 248 248 246 246 234 227 235 241 250 246 215 212 232 213 209 206 209 214 215 216
303 294 289 288 288 289 292 292 294 290 279 274 274 271 273 269 245 243 243 247 250 247 245 250 257 255 248 236 231 237 240 241 249 232 221 239 220 222 217 216 204 207 211
290 285 282 285 282 279 274 270 279 273 280 274 271 266 264 263 263 261 264 257 253 254 248 244 251 258 257 253 238 234 238 246 250 236 220 240 231 232 236 213 211 209 209
284 281 283 282 283 277 252 260 269 274 278 280 274 273 271 259 258 251 260 266 265 262 254 248 247 252 254 253 248 245 244 244 254 242 217 233 242 247 238 226 217 214 212
284 286 284 279 276 273 243 245 257 274 281 282 272 264 256 250 244 241 251 263 266 267 274 268 256 255 251 247 238 229 235 243 254 257 224 219 239 238 250 231 205 201 205
Height
1521 1522 1523 1523 1524 1524 1524 1524 1524 1524 1525 1526 1526 1526 1526 1527 1527 1527 1527 1528 1528 1528 1529 1529 1530 1531 1532 1533 1534 1534 1534 1537 1540 1542 1544 1546 1549 1550 1552 1554 1556 1557 1558
1522 1522 1523 1523 1524 1524 1524 1524 1524 1524 1525 1525 1526 1526 1526 1526 1527 1527 1528 1528 1528 1528 1529 1529 1530 1531 1531 1531 1532 1531 1531 1534 1538 1540 1543 1545 1547 1549 1551 1553 1554 1555 1557
1522 1522 1523 1523 1523 1524 1524 1524 1524 1524 1525 1525 1525 1526 1526 1526 1526 1527 1527 1528 1528 1528 1529 1529 1529 1530 1530 1530 1531 1530 1530 1533 1536 1539 1541 1543 1545 1547 1549 1551 1552 1554 1555
1522 1523 1523 1523 1523 1523 1524 1524 1523 1524 1524 1524 1525 1525 1525 1525 1526 1526 1527 1527 1527 1528 1528 1528 1529 1529 1529 1530 1531 1531 1532 1533 1536 1538 1540 1542 1543 1545 1547 1549 1550 1552 1553
1523 1523 1522 1523 1523 1523 1523 1523 1523 1523 1523 1523 1523 1524 1525 1525 1525 1526 1526 1526 1527 1527 1527 1528 1528 1528 1529 1529 1530 1531 1532 1533 1535 1537 1539 1540 1541 1543 1545 1547 1548 1550 1551
1523 1523 1522 1522 1522 1522 1522 1522 1522 1522 1522 1523 1523 1524 1524 1524 1524 1524 1525 1526 1526 1527 1526 1526 1527 1527 1528 1529 1529 1530 1531 1533 1534 1535 1537 1538 1539 1541 1543 1545 1546 1547 1549
1523 1523 1522 1522 1522 1521 1521 1521 1521 1521 1521 1522 1523 1523 1523 1524 1524 1524 1524 1525 1526 1526 1526 1526 1526 1527 1527 1528 1529 1529 1530 1531 1533 1534 1535 1536 1537 1539 1540 1542 1544 1545 1546
1523 1523 1522 1522 1521 1521 1520 1520 1520 1520 1520 1521 1522 1522 1522 1524 1523 1524 1524 1524 1525 1525 1526 1526 1526 1526 1527 1527 1528 1529 1530 1530 1531 1532 1533 1534 1535 1536 1538 1539 1541 1542 1544
1522 1522 1521 1521 1520 1520 1519 1519 1519 1519 1519 1520 1520 1521 1521 1522 1522 1522 1522 1523 1523 1524 1524 1525 1525 1525 1525 1526 1527 1528 1529 1529 1530 1531 1531 1532 1533 1534 1535 1537 1538 1539 1541
1522 1521 1521 1520 1520 1519 1519 1519 1519 1518 1518 1518 1519 1520 1521 1520 1520 1520 1521 1521 1522 1522 1523 1524 1524 1523 1524 1525 1526 1526 1527 1528 1528 1529 1530 1530 1531 1532 1533 1534 1535 1537 1538
1521 1521 1520 1519 1519 1518 1518 1518 1518 1517 1517 1517 1518 1518 1519 1519 1519 1519 1519 1520 1520 1520 1521 1522 1522 1522 1522 1522 1524 1525 1525 1526 1527 1527 1528 1528 1529 1530 1531 1531 1533 1534 1535
1521 1520 1519 1519 1518 1518 1517 1517 1517 1516 1516 1516 1516 1517 1517 1517 1517 1518 1518 1518 1518 1519 1519 1520 1521 1521 1521 1521 1522 1523 1524 1524 1525 1525 1526 1526 1527 1527 1528 1529 1530 1531 1532
1520 1519 1518 1518 1517 1517 1516 1516 1515 1515 1515 1515 1515 1515 1515 1516 1516 1517 1516 1516 1516 1517 1518 1518 1519 1519 1519 1520 1521 1522 1522 1522 1523 1523 1523 1524 1524 1525 1526 1527 1528 1529 1530
1519 1518 1517 1517 1516 1515 1515 1514 1514 1514 1513 1513 1513 1513 1513 1514 1515 1515 1515 1515 1515 1515 1515 1516 1516 1517 1518 1518 1519 1519 1520 1520 1520 1521 1521 1522 1522 1523 1523 1524 1525 1526 1527
1518 1517 1516 1515 1514 1514 1513 1513 1512 1512 1512 1511 1511 1511 1511 1512 1513 1513 1513 1513 1514 1513 1514 1514 1514 1515 1515 1516 1516 1517 1517 1518 1518 1518 1519 1519 1519 1520 1521 1521 1522 1523 1524
1516 1516 1515 1514 1513 1512 1512 1511 1511 1511 1510 1510 1509 1509 1509 1510 1510 1511 1511 1511 1512 1512 1512 1512 1512 1513 1514 1514 1514 1514 1515 1515 1515 1516 1516 1517 1517 1517 1518 1518 1519 1520 1521
1515 1514 1513 1512 1511 1511 1510 1510 1509 1509 1508 1508 1508 1508 1508 1508 1508 1508 1509 1509 1509 1510 1509 1510 1510 1511 1511 1511 1511 1512 1512 1512 1512 1513 1514 1514 1514 1515 1515 1515 1516 1517 1517
1513 1513 1512 1511 1510 1509 1508 1508 1507 1507 1506 1506 1506 1505 1505 1505 1505 1505 1506 1506 1506 1507 1507 1507 1507 1508 1508 1508 1508 1509 1509 1509 1509 1510 1510 1511 1511 1511 1512 1512 1513 1513 1514
1512 1511 1510 1509 1508 1507 1507 1506 1506 1505 1504 1504 1503 1503 1503 1503 1502 1502 1503 1503 1504 1504 1505 1504 1504 1505 1505 1505 1505 1506 1506 1506 1506 1506 1507 1507 1508 1508 1508 1508 1509 1510 1510
1510 1509 1508 1507 1507 1506 1505 1504 1503 1503 1502 1502 1501 1501 1500 1500 1500 1500 1500 1500 1501 1501 1502 1501 1501 1502 1502 1502 1502 1502 1502 1503 1503 1503 1503 1503 1504 1504 1504 1504 1505 1505 1506
1509 1507 1506 1505 1505 1504 1503 1502 1501 1500 1499 1499 1499 1498 1498 1498 1498 1498 1498 1497 1498 1498 1498 1498 1498 1499 1499 1499 1498 1498 1499 1499 1499 1500 1499 1499 1499 1499 1499 1500 1500 1501 1501
1506 1505 1504 1503 1502 1502 1501 1500 1499 1498 1497 1496 1495 1495 1495 1495 1494 1494 1494 1494 1495 1495 1495 1495 1495 1495 1495 1495 1495 1495 1495 1495 1495 1496 1495 1495 1495 1495 1495 1495 1496 1497 1497
1504 1503 1502 1501 1500 1499 1498 1497 1496 1495 1494 1493 1492 1492 1492 1492 1491 1491 1491 1491 1490 1490 1491 1491 1491 1491 1491 1492 1491 1491 1491 1491 1491 1491 1492 1490 1491 1490 1491 1491 1492 1492 1493
1502 1501 1499 1498 1497 1496 1495 1494 1493 1492 1491 1490 1489 1489 1488 1487 1487 1487 1486 1486 1486 1485 1486 1486 1486 1487 1488 1488 1487 1487 1487 1487 1487 1487 1488 1487 1486 1486 1486 1487 1487 1487 1488
1499 1498 1497 1495 1494 1493 1492 1491 1490 1488 1487 1486 1486 1485 1484 1484 1483 1483 1482 1481 1481 1481 1481 1481 1482 1482 1482 1482 1483 1483 1483 1483 1482 1482 1482 1482 1482 1482 1482 1481 1482 1483 1483
1497 1496 1494 1493 1492 1490 1489 1488 1487 1485 1484 1483 1482 1481 1481 1480 1479 1479 1478 1477 1476 1476 1476 1476 1476 1476 1476 1476 1477 1478 1478 1478 1477 1477 1477 1478 1477 1477 1477 1476 1477 1477 1477